SCP
0 0 0 0 0 0 0 0 0 0 0 0 0 0 0 0 0 0 0 0 0 0
0 0 0 0 0 0 0 0 0 0 0 0 0 0 0 0 0 0 0 0 0 0
0 0 0 0 0 0 0 0 0 0 0 0 0 0 0 0 0 0 0 0 0 0
0 0 0 0 0 0 0 0 0 0 0 0 0 0 0 0 0 0 0 0 0 0
0 0 0 0 0 0 0 0 0 0 0 0 0 0 0 0 0 0 0 0 0 0
0 0 0 0 0 0 0 0 0 0 0 0 0 0 0 0 0 0 0 0 0 0
0 0 0 0 0 0 0 0 0 0 0 0 0 0 0 0 0 0 0 0 0 0
0 0 0 0 0 0 0 0 0 0 0 0 0 0 0 0 0 0 0 0 0 0
0 0 0 0 0 0 0 0 0 0 0 0 0 0 0 0 0 0 0 0 0 0
0 0 0 0 0 0 0 0 0 0 0 0 0 0 0 0 0 0 0 0 0 0
0 0 0 0 0 0 0 0 0 0 0 0 0 0 0 0 0 0 0 0 0 0
0 0 0 0 0 0 0 0 0 0 0 0 0 0 0 0 0 0 0 0 0 0
0 0 0 0 0 0 0 0 0 0 0 0 0 0 0 0 0 0 0 0 0 0
0 0 0 0 0 0 0 0 0 0 0 0 0 0 0 0 0 0 0 0 0 0
Wind_Speed_500mb
62 63 64 65 63 57 51 44 37 29 21 16 13 10 10 12 14 18 19 21 22 24
66 68 69 65 58 53 47 42 36 28 20 16 12 8 10 12 13 14 15 17 18 21
73 73 70 66 62 55 47 40 33 26 22 16 11 9 8 8 9 11 13 14 16 20
83 78 73 66 60 53 47 39 33 28 21 14 10 8 4 3 5 6 8 11 16 23
82 78 73 68 62 55 49 43 35 29 22 16 13 9 4 1 2 5 8 12 19 26
87 83 78 71 66 59 52 45 39 31 24 19 14 9 5 4 4 4 9 14 21 28
90 86 80 73 67 62 55 47 39 33 26 22 16 10 6 6 7 8 9 16 21 27
91 86 80 76 71 65 57 48 39 33 29 22 16 10 7 8 11 12 12 16 20 26
91 87 83 79 75 67 59 52 43 36 27 23 18 12 10 12 16 16 17 19 22 26
92 90 88 82 76 70 62 53 44 35 28 30 25 19 17 18 22 22 23 25 26 27
94 91 89 83 78 71 63 53 45 35 36 37 32 27 25 26 28 29 31 33 31 30
96 97 91 87 81 72 64 57 46 41 43 45 38 35 31 32 33 35 38 37 35 35
100 97 93 87 82 75 68 59 57 48 52 50 45 39 36 37 38 43 42 40 41 40
94 94 91 87 85 79 71 58 65 52 61 52 47 45 40 41 47 45 46 46 47 44
Wind_Direction_500mb
194 192 186 179 177 174 173 169 163 161 155 146 129 112 87 64 46 39 29 24 19 13
197 192 184 179 179 179 176 171 167 164 162 159 147 115 77 51 31 25 21 21 15 7
193 189 185 185 183 182 178 176 173 173 174 168 147 108 79 39 20 23 13 11 3 354
190 189 190 189 185 183 182 180 180 179 177 165 141 125 102 40 8 357 353 350 346 347
193 193 193 190 188 188 187 183 185 184 179 171 170 171 176 207 311 334 335 339 340 344
197 196 196 194 192 190 191 190 187 185 181 180 182 183 192 206 242 295 325 334 343 344
200 200 199 197 195 194 192 193 190 185 187 189 190 189 197 225 260 285 314 329 333 339
204 202 200 198 198 195 194 192 191 192 194 204 208 203 214 241 259 280 298 311 323 335
205 203 202 201 199 198 196 192 194 197 209 220 223 231 240 251 258 267 281 294 307 320
208 206 204 203 202 201 200 198 199 206 229 231 234 244 253 256 257 264 272 280 291 306
213 210 208 206 206 205 203 203 206 220 232 238 242 248 256 259 260 264 270 277 286 300
218 215 212 210 210 209 208 207 215 227 237 241 244 248 257 264 263 266 270 278 284 295
223 222 219 217 215 214 212 211 243 224 237 238 243 252 256 267 267 267 271 277 281 289
230 229 226 223 220 217 212 226 238 227 235 240 246 251 259 267 268 269 273 277 280 285
Wind_Speed_850mb
62 63 64 65 63 57 51 44 37 29 21 16 13 10 10 12 14 18 19 21 22 24
66 68 69 65 58 53 47 42 36 28 20 16 12 8 10 12 13 14 15 17 18 21
73 73 70 66 62 55 47 40 33 26 22 16 11 9 8 8 9 11 13 14 16 20
83 78 73 66 60 53 47 39 33 28 21 14 10 8 4 3 5 6 8 11 16 23
82 78 73 68 62 55 49 43 35 29 22 16 13 9 4 1 2 5 8 12 19 26
87 83 78 71 66 59 52 45 39 31 24 19 14 9 5 4 4 4 9 14 21 28
90 86 80 73 67 62 55 47 39 33 26 22 16 10 6 6 7 8 9 16 21 27
91 86 80 76 71 65 57 48 39 33 29 22 16 10 7 8 11 12 12 16 20 26
91 87 83 79 75 67 59 52 43 36 27 23 18 12 10 12 16 16 17 19 22 26
92 90 88 82 76 70 62 53 44 35 28 30 25 19 17 18 22 22 23 25 26 27
94 91 89 83 78 71 63 53 45 35 36 37 32 27 25 26 28 29 31 33 31 30
96 97 91 87 81 72 64 57 46 41 43 45 38 35 31 32 33 35 38 37 35 35
100 97 93 87 82 75 68 59 57 48 52 50 45 39 36 37 38 43 42 40 41 40
94 94 91 87 85 79 71 58 65 52 61 52 47 45 40 41 47 45 46 46 47 44
Wind_Direction_850mb
194 192 186 179 177 174 173 169 163 161 155 146 129 112 87 64 46 39 29 24 19 13
197 192 184 179 179 179 176 171 167 164 162 159 147 115 77 51 31 25 21 21 15 7
193 189 185 185 183 182 178 176 173 173 174 168 147 108 79 39 20 23 13 11 3 354
190 189 190 189 185 183 182 180 180 179 177 165 141 125 102 40 8 357 353 350 346 347
193 193 193 190 188 188 187 183 185 184 179 171 170 171 176 207 311 334 335 339 340 344
197 196 196 194 192 190 191 190 187 185 181 180 182 183 192 206 242 295 325 334 343 344
200 200 199 197 195 194 192 193 190 185 187 189 190 189 197 225 260 285 314 329 333 339
204 202 200 198 198 195 194 192 191 192 194 204 208 203 214 241 259 280 298 311 323 335
205 203 202 201 199 198 196 192 194 197 209 220 223 231 240 251 258 267 281 294 307 320
208 206 204 203 202 201 200 198 199 206 229 231 234 244 253 256 257 264 272 280 291 306
213 210 208 206 206 205 203 203 206 220 232 238 242 248 256 259 260 264 270 277 286 300
218 215 212 210 210 209 208 207 215 227 237 241 244 248 257 264 263 266 270 278 284 295
223 222 219 217 215 214 212 211 243 224 237 238 243 252 256 267 267 267 271 277 281 289
230 229 226 223 220 217 212 226 238 227 235 240 246 251 259 267 268 269 273 277 280 285